Weather in Hodonin

Czech Republic     48°51′15″N   17°07′14″E
temp.,
°C
wind,
m/s
gust,
m/s
humid.,
%
clouds,
%
prec.,
mm/h
press.,
hPa
HPBL,
m
9 may, sun
sun923:00+7se48705 0.0 1020121
02:00+7sse510665 0.0 1020264
05:00+5se33775 0.0 102045
08:00+9se596674 0.0 1020441
11:00+15sse810545 0.0 1019950
14:00+19sse8104742 0.0 10181185
17:00+19sse8135438 0.0 10161153
20:00+15se91761100 0.0 1016721
10 may, mon
mon1023:00+14se1019545 0.0 1016664
02:00+12se1121575 0.0 1014621
05:00+11se1121635 0.0 1013589
08:00+12se917685 0.0 1014778
11:00+18sse101461100 0.0 10141186
14:00+22sse9125677 0.0 10121784
17:00+22sse812590 0.0 10121481
20:00+19se815685 0.0 1011551
11 may, tue
tue1123:00+18se9176977 0.0 1011659
02:00+16se917715 0.0 1009744
05:00+15se1221715 0.0 1008635
08:00+16se1119735 0.0 1009744
11:00+22sse9155916 0.0 10091395
14:00+24sse91352100 0.0 10081788
17:00+24sse8145571 0.0 10061609
20:00+20se816674 0.0 1006620
12 may, wed
wed1223:00+18se7157337 0.0 1006458
02:00+17se6147489 0.0 1005390
05:00+15se614798 0.3 1004376
08:00+16se6117892 0.8 1004554
11:00+18sw5577100 0.8 1005900
14:00+19ssw446681 0.8 10041004
17:00+16wsw5774100 0.4 1003648
20:00+12w4881100 0.7 1004352
13 may, thu
thu1323:00+11wsw4991100 1.4 1002374
02:00+10wsw61195100 5.3 1001445
05:00+10wsw51095100 3.5 1001557
08:00+10wsw71194100 4.4 1001566
11:00+10sw61192100 0.2 1002588
14:00+11wsw71088100 0.3 1003809
17:00+9wsw71192100 0.8 1004702
20:00+9wsw61193100 1.5 1005643